Temperature
15 14 14 14 14 14 14 14 14 14 13 13 13 13 12 12 12 12 12 12 12 12 12 12 12 12 12 12 12 11 11 11 11 11 11 11 10 10
15 14 14 14 14 14 14 14 14 14 13 13 13 12 12 12 12 12 12 12 12 12 12 12 12 11 11 11 11 11 11 11 11 10 10 10 10 10
14 14 14 14 14 14 14 14 14 14 13 13 13 12 12 12 12 12 12 12 12 11 11 11 11 11 11 11 11 11 11 10 10 10 10 10 10 9
14 14 14 14 14 14 14 14 13 13 13 13 13 12 12 12 12 11 11 11 11 11 11 11 11 11 10 10 10 10 10 10 10 10 10 10 9 9
14 14 14 14 14 14 14 13 13 13 13 13 12 12 12 12 11 11 11 11 11 10 10 10 10 10 10 10 10 9 9 9 9 9 9 9 9 9
14 14 14 14 14 14 14 13 13 13 12 12 12 12 12 11 11 11 11 11 10 10 10 10 10 9 9 9 9 9 9 9 9 8 8 8 8 8
14 14 14 14 13 13 13 13 13 13 12 12 12 11 11 11 11 11 11 10 10 10 10 9 9 9 9 9 9 8 8 8 8 8 8 7 7 7
14 14 14 13 13 13 13 13 13 12 12 12 11 11 11 11 11 10 10 10 9 10 9 9 9 9 8 8 8 8 8 7 7 7 7 7 7 7
13 13 13 13 13 13 13 13 12 12 12 12 11 11 11 11 10 10 10 10 9 9 9 9 8 8 8 8 7 7 7 7 7 6 6 6 6 6
13 13 13 13 13 12 12 12 12 12 12 11 11 11 11 10 10 10 10 9 9 9 8 8 8 8 8 7 7 7 6 6 6 6 6 5 5 5
13 13 13 13 12 12 12 12 12 11 11 11 11 11 10 10 10 10 9 9 9 8 8 8 7 7 7 7 7 6 6 6 6 5 5 5 5 5
13 13 12 12 12 12 12 11 11 11 11 10 10 10 10 10 10 9 9 8 8 7 7 7 7 6 6 6 6 6 5 5 5 5 5 5 4 4
13 12 12 12 12 12 11 11 11 10 10 10 10 10 10 9 9 9 8 8 8 7 7 7 6 6 6 5 5 5 5 5 5 4 4 4 4 4
12 12 12 12 11 11 11 11 11 10 10 10 9 9 9 9 9 8 8 8 7 7 7 6 6 6 5 5 5 5 4 4 4 4 4 4 4 3
12 12 11 11 11 11 11 10 10 10 10 9 9 9 8 8 8 8 8 7 7 7 6 6 6 6 5 5 5 4 4 4 4 4 3 3 3 3
12 11 11 11 10 10 10 10 10 9 9 9 9 8 8 8 8 7 7 7 7 7 6 6 5 5 5 5 4 4 4 3 3 3 3 3 2 2
11 11 10 10 10 10 10 9 9 9 9 8 8 8 8 7 7 7 6 6 6 6 6 5 5 5 5 4 4 4 3 3 3 2 2 2 2 2
11 10 10 10 10 9 9 9 9 8 8 8 8 7 7 7 7 6 6 6 5 5 5 5 4 4 4 4 3 3 3 3 2 2 2 1 1 1
10 10 10 10 9 9 9 9 8 8 8 8 7 7 7 6 6 6 5 5 5 5 4 4 4 3 3 3 3 2 2 2 2 2 1 1 1 1
10 10 10 9 9 9 9 8 8 8 8 7 7 7 6 6 6 5 5 5 4 4 4 3 3 3 3 2 2 2 2 1 1 1 1 1 1 1
10 9 9 9 9 8 8 8 8 7 7 7 6 6 6 6 5 5 5 4 4 4 3 3 3 2 2 2 2 2 2 1 1 0 0 0 0 0
9 9 9 9 9 8 8 8 7 7 7 6 6 6 6 5 5 4 4 4 3 3 3 3 2 2 2 1 1 1 1 1 1 0 -0 -0 -1 -1
9 9 9 8 8 8 7 7 7 6 6 6 6 6 5 5 4 4 4 3 3 3 3 2 2 2 1 1 1 0 0 0 -0 -0 -0 -0 -1 -1
Wind_Speed
2 2 1 1 1 1 1 2 2 1 1 1 1 2 4 6 5 5 6 5 6 6 7 7 7 7 7 7 8 8 8 9 9 10 10 10 10 10
2 2 2 1 1 1 1 1 1 2 1 0 1 1 3 4 4 6 6 6 6 6 6 6 7 7 7 7 8 8 8 9 9 9 9 9 9 9
2 2 2 2 1 1 1 2 2 2 2 1 1 2 2 2 2 3 5 6 6 5 6 6 6 7 8 8 9 9 9 9 9 9 9 9 9 10
1 2 2 2 2 2 2 1 1 2 2 1 1 2 2 2 2 1 3 4 5 5 5 6 6 7 8 8 9 9 10 10 10 10 10 10 10 10
2 2 2 3 2 2 2 2 1 2 2 2 1 1 2 2 2 2 3 2 3 5 5 5 5 6 7 7 8 9 9 10 10 10 11 11 11 11
3 3 3 4 2 2 2 1 1 2 2 2 1 1 1 1 2 2 2 1 2 3 4 4 4 5 6 7 7 8 9 9 9 9 10 10 10 11
3 4 5 7 7 4 3 2 2 2 2 2 1 1 1 2 1 1 1 1 1 2 2 2 3 3 4 5 5 6 7 7 8 8 9 10 10 11
2 3 3 5 6 6 7 7 6 4 2 2 1 1 1 0 1 1 0 1 1 1 1 1 2 2 2 4 4 5 5 6 6 7 8 9 10 10
2 2 2 3 4 3 3 4 5 5 4 3 2 1 0 1 0 1 1 0 1 0 2 1 1 1 1 3 3 3 4 4 5 6 7 8 9 10
1 2 2 2 2 3 4 3 2 2 2 2 2 1 2 2 1 1 1 0 1 2 3 0 1 1 1 2 2 2 2 3 4 6 6 7 8 9
1 2 2 2 4 5 4 2 2 1 2 3 3 2 4 5 5 3 2 2 1 1 1 1 1 1 1 0 1 1 2 3 4 5 6 7 8 8
1 1 3 3 4 5 3 2 1 1 2 2 1 1 1 3 4 2 1 1 0 1 1 1 0 1 1 1 1 2 2 4 5 5 6 7 8 7
2 2 2 5 4 4 3 2 1 1 2 2 1 1 0 1 1 2 2 1 1 1 1 1 0 0 0 1 2 1 2 4 4 4 5 7 8 6
2 2 2 6 5 4 3 2 2 2 1 1 1 0 0 0 1 1 2 2 2 0 2 1 1 1 0 1 2 2 2 4 2 2 4 6 7 7
2 3 4 5 5 3 3 3 2 1 1 1 1 0 0 0 1 1 2 2 3 3 4 3 1 0 1 1 2 2 2 2 2 2 3 3 4 4
3 3 3 4 3 3 2 2 1 1 1 1 1 1 0 1 0 0 0 0 1 2 4 4 3 1 1 1 1 2 2 2 3 3 2 3 4 4
3 2 2 2 2 2 2 2 2 1 1 1 1 0 0 0 0 0 1 0 0 1 2 2 3 3 2 1 1 2 2 2 3 3 3 4 4 3
4 3 3 3 3 3 3 2 2 2 2 2 1 1 1 1 1 0 1 1 1 1 1 1 0 2 2 3 2 2 2 3 4 3 3 3 4 4
4 3 3 3 3 2 2 2 2 2 2 2 2 2 2 1 1 1 1 1 2 2 1 1 0 0 2 4 3 3 3 4 3 3 3 3 5 4
3 3 3 3 3 3 2 2 2 2 2 2 2 2 2 1 1 1 1 2 2 1 1 1 1 1 3 4 3 3 4 3 3 4 4 4 4 6
3 3 3 2 2 2 2 2 3 2 2 2 2 2 2 2 2 2 2 2 2 2 2 3 3 3 2 1 2 3 3 5 5 3 4 4 5 4
3 3 2 2 2 3 3 3 3 3 3 2 2 2 2 2 2 2 2 1 2 2 2 2 1 1 1 2 3 3 4 4 6 7 7 6 3 4
3 3 3 3 3 2 2 3 3 3 3 2 2 2 2 2 2 2 2 2 1 1 1 1 1 1 1 1 2 3 4 4 3 4 5 9 10 12
Wind_Direction
79 78 86 79 59 41 62 109 132 99 31 85 93 100 113 106 113 115 104 88 75 66 61 55 52 50 47 45 43 40 37 37 36 35 32 28 26 24
89 64 50 78 68 51 33 26 85 129 119 56 118 127 95 102 105 118 116 102 90 80 72 65 60 55 51 48 45 44 41 36 33 32 30 25 20 16
120 109 81 72 61 40 44 42 44 86 113 11 55 91 92 79 88 121 125 116 109 96 84 77 72 64 58 56 53 49 45 39 36 31 24 18 15 12
96 93 98 82 61 59 60 52 64 91 116 101 27 44 60 78 76 58 95 110 117 112 106 97 90 80 70 63 58 53 50 45 42 36 29 22 17 12
102 83 78 88 72 56 53 49 59 75 94 112 64 35 37 44 49 31 54 67 106 111 111 108 103 96 85 74 62 55 49 44 41 36 30 25 20 17
90 81 66 71 70 69 66 51 78 81 86 104 102 45 33 15 51 23 7 6 50 65 74 100 99 101 93 80 66 55 46 40 36 31 25 21 20 16
85 90 86 81 71 64 62 48 54 76 88 96 103 63 35 35 356 306 334 327 46 50 57 83 97 95 104 85 65 52 45 38 32 27 25 22 17 11
132 127 123 106 99 87 76 71 72 74 78 94 91 91 19 328 311 328 357 18 331 358 51 2 85 92 107 114 83 63 45 36 29 23 20 16 11 5
148 143 127 127 130 139 108 84 65 60 72 101 84 48 311 308 318 325 323 305 209 256 76 355 34 51 58 128 112 75 44 29 18 12 8 6 4 360
95 119 129 141 130 135 131 116 103 75 88 96 116 72 34 17 55 201 236 4 87 53 69 45 351 345 337 151 133 57 25 15 10 3 2 359 355 354
80 85 102 109 106 120 122 129 135 155 120 123 128 98 52 40 41 48 38 52 338 318 38 81 319 334 320 112 21 330 330 344 346 349 351 352 349 346
136 95 91 103 110 129 134 144 169 188 136 125 109 55 30 27 35 50 114 110 295 292 308 100 318 19 338 318 329 315 323 327 325 326 333 339 339 335
159 163 148 130 127 138 140 153 172 125 139 153 158 165 105 46 33 23 32 115 156 257 315 100 255 18 225 296 312 319 328 316 308 320 326 327 331 333
173 168 149 138 139 144 155 147 107 76 83 102 109 119 134 93 78 54 36 30 33 356 357 51 164 202 249 299 292 308 330 325 323 347 336 332 330 329
170 146 135 144 148 152 151 140 123 128 145 158 193 243 252 139 81 58 46 37 13 13 11 5 2 265 195 253 281 300 310 316 342 346 338 333 322 328
186 162 159 168 175 171 158 169 170 168 164 198 213 219 116 68 48 91 73 38 15 340 355 8 6 33 292 277 274 293 301 304 327 330 322 318 322 327
175 166 165 168 179 188 180 174 175 180 203 215 203 222 180 196 241 139 122 130 240 270 312 338 20 30 6 322 296 287 300 306 301 304 313 306 299 310
159 178 193 194 194 195 192 192 188 193 199 194 197 213 217 220 231 180 158 193 238 262 280 282 15 1 355 339 302 278 297 290 294 296 299 301 300 306
164 191 198 201 199 193 192 192 201 198 186 186 205 219 219 217 212 225 235 246 248 259 272 270 345 359 307 304 299 310 288 293 297 302 295 289 291 296
189 197 203 202 200 198 194 195 200 193 186 197 207 216 211 213 221 225 232 243 249 264 282 287 273 252 251 265 277 296 310 306 309 301 299 301 293 296
202 204 203 199 201 200 198 198 198 200 200 198 208 215 214 212 223 231 239 251 245 252 258 263 262 270 271 308 310 301 305 317 321 310 309 313 311 308
202 205 207 202 202 202 201 197 200 202 200 202 208 210 212 210 219 221 223 233 236 241 262 282 305 332 330 292 287 295 305 312 317 319 317 307 306 307
206 205 207 213 215 209 199 198 202 205 199 200 201 207 211 210 210 211 219 223 234 245 269 289 308 324 297 286 291 303 309 312 313 314 305 303 300 295
Height
1557 1557 1557 1558 1558 1558 1558 1559 1559 1559 1559 1559 1559 1558 1557 1557 1556 1555 1554 1553 1552 1550 1549 1548 1546 1545 1544 1543 1541 1540 1539 1538 1537 1537 1536 1535 1534 1533
1557 1557 1557 1557 1557 1557 1558 1558 1558 1558 1558 1559 1558 1558 1558 1557 1556 1554 1553 1553 1551 1550 1549 1547 1546 1545 1544 1542 1541 1540 1539 1538 1537 1536 1535 1534 1533 1532
1557 1557 1557 1557 1557 1557 1557 1557 1557 1558 1558 1558 1558 1558 1557 1556 1555 1554 1553 1552 1551 1550 1549 1547 1546 1545 1543 1542 1541 1540 1539 1537 1536 1535 1534 1533 1531 1530
1556 1556 1556 1556 1556 1556 1556 1556 1557 1557 1557 1556 1557 1557 1556 1555 1555 1554 1553 1552 1551 1549 1548 1547 1546 1544 1543 1542 1541 1539 1538 1537 1535 1534 1533 1531 1530 1528
1555 1555 1555 1555 1555 1555 1555 1555 1555 1555 1555 1555 1555 1555 1555 1554 1553 1553 1552 1551 1550 1549 1548 1547 1545 1544 1542 1541 1540 1539 1537 1535 1534 1532 1531 1529 1528 1526
1554 1554 1554 1554 1553 1554 1554 1554 1554 1554 1554 1554 1554 1553 1553 1553 1552 1551 1550 1550 1549 1548 1547 1546 1544 1543 1541 1540 1539 1538 1536 1534 1532 1531 1529 1527 1526 1524
1553 1553 1552 1552 1552 1552 1552 1552 1552 1552 1552 1552 1552 1552 1551 1551 1550 1549 1549 1548 1547 1547 1546 1545 1543 1542 1540 1539 1538 1536 1534 1533 1531 1529 1527 1525 1523 1522
1551 1551 1551 1551 1551 1551 1551 1551 1551 1551 1551 1551 1550 1550 1549 1549 1549 1548 1547 1546 1545 1545 1544 1543 1542 1540 1539 1538 1537 1535 1533 1531 1529 1527 1525 1523 1521 1519
1549 1549 1549 1549 1549 1549 1549 1549 1549 1549 1549 1549 1548 1548 1548 1547 1546 1546 1545 1544 1543 1543 1542 1541 1540 1539 1537 1536 1535 1533 1531 1529 1527 1525 1523 1521 1519 1517
1547 1547 1547 1547 1547 1547 1547 1547 1547 1547 1547 1547 1547 1546 1546 1545 1544 1544 1543 1542 1542 1541 1540 1539 1537 1536 1536 1535 1533 1531 1530 1528 1526 1524 1522 1520 1517 1515
1545 1545 1545 1545 1545 1545 1545 1545 1545 1545 1545 1545 1545 1544 1543 1543 1542 1542 1541 1540 1539 1538 1538 1537 1535 1534 1533 1532 1531 1530 1528 1526 1524 1522 1520 1518 1516 1513
1542 1542 1543 1543 1543 1543 1543 1543 1543 1543 1543 1543 1542 1542 1541 1540 1540 1539 1539 1538 1537 1536 1536 1535 1533 1532 1530 1530 1528 1527 1525 1523 1522 1520 1518 1516 1514 1511
1539 1540 1540 1540 1540 1540 1540 1540 1540 1541 1540 1540 1540 1539 1539 1538 1537 1537 1536 1536 1535 1534 1534 1532 1531 1530 1529 1527 1525 1524 1523 1521 1519 1517 1516 1513 1511 1509
1536 1537 1537 1537 1537 1537 1538 1538 1538 1538 1538 1537 1537 1536 1536 1535 1535 1534 1534 1533 1533 1532 1531 1530 1528 1527 1526 1524 1522 1521 1520 1518 1517 1515 1513 1511 1508 1506
1533 1534 1534 1534 1534 1534 1534 1535 1535 1535 1534 1534 1534 1534 1533 1533 1532 1532 1531 1530 1530 1529 1528 1527 1526 1525 1523 1522 1520 1518 1517 1515 1514 1512 1510 1508 1505 1503
1530 1530 1530 1531 1531 1531 1531 1531 1531 1531 1531 1531 1531 1531 1531 1530 1529 1528 1528 1527 1526 1525 1525 1524 1523 1522 1520 1519 1517 1516 1515 1513 1511 1508 1506 1504 1502 1500
1526 1526 1526 1526 1527 1527 1527 1527 1528 1528 1528 1528 1528 1528 1527 1526 1526 1525 1524 1524 1522 1521 1520 1520 1519 1518 1517 1516 1514 1513 1511 1509 1507 1505 1503 1501 1499 1497
1523 1522 1522 1522 1523 1523 1523 1523 1524 1524 1524 1524 1524 1524 1523 1523 1522 1521 1521 1520 1519 1518 1517 1516 1515 1514 1513 1512 1512 1509 1508 1506 1504 1502 1500 1497 1495 1493
1518 1518 1518 1519 1519 1519 1520 1520 1520 1520 1521 1521 1520 1520 1520 1519 1518 1518 1517 1516 1515 1514 1514 1513 1512 1511 1509 1507 1507 1507 1505 1502 1500 1498 1496 1494 1491 1489
1514 1514 1514 1515 1515 1515 1516 1516 1516 1516 1516 1516 1516 1516 1516 1515 1515 1514 1513 1513 1512 1511 1510 1509 1509 1508 1507 1506 1504 1503 1502 1500 1497 1495 1492 1490 1488 1486
1509 1509 1510 1511 1511 1512 1512 1512 1512 1512 1512 1512 1512 1512 1511 1511 1510 1510 1509 1509 1508 1507 1506 1506 1506 1505 1504 1503 1501 1498 1498 1497 1495 1493 1489 1487 1483 1481
1505 1505 1506 1507 1507 1507 1507 1508 1508 1508 1508 1508 1508 1507 1507 1507 1506 1506 1505 1505 1504 1504 1503 1503 1503 1502 1501 1499 1497 1495 1494 1493 1491 1489 1487 1485 1482 1478
1500 1501 1502 1502 1502 1502 1503 1503 1503 1503 1503 1503 1503 1503 1503 1502 1502 1502 1501 1501 1501 1500 1500 1499 1499 1498 1497 1496 1494 1492 1490 1489 1487 1485 1483 1481 1479 1477